Flag for Czech Republic Weather past 2 weeks in Brno, Czech Republic

Now
21 °F

Light snow. Passing clouds.


Feels Like: 13 °F
Forecast: 17 / 24 °F
Wind: 7 mph from Northwest

Location: Brno / Turany

Current Time: Dec 29, 2014 at 5:01:38 AM

Latest Report: Dec 29, 2014 at 4:00 AM


Visibility: 6 mi

Pressure: 30.30 "Hg

Humidity: 74%

Dew point: 14 °F

Location of BrnoLocation

Historic Weather in Brno — Graph

°F

Brno temperature yesterday

Maximum temperature yesterday: 27 °F (at 12:00 AM)
Minimum temperature yesterday: 18 °F (at 9:00 PM)
Average temperature yesterday: 23 °F

Past Weeks' High & Low Weather Summary

 TemperatureHumidityPressure
High57 °F (Dec 19, 2:00 PM)98% (Dec 14, 11:00 PM)30.36 "Hg (Dec 14, 11:00 PM)
Low18 °F (Dec 28, 9:00 PM)45% (Dec 27, 2:00 PM)29.75 "Hg (Dec 27, 9:00 PM)
Average39 °F78%30.07 "Hg
* Reported Dec 14 3:00 AM — Dec 29 3:00 AM, Brno, Weather by CustomWeather, © 2014

Note: Actual official high and low records may vary slightly from our data, if they occured in-between our weather recording intervals... More about our weather records

Advertising

Brno weather history for previous 24 hours

 ConditionsComfort  
Time TempWeatherWind HumidityBarometerVisibility
3:00 AM
Dec 29
20 °FPassing clouds.5 mph76%30.31 "Hg6 mi
2:00 AM20 °FPassing clouds.3 mph76%30.30 "Hg7 mi
1:00 AM22 °FPassing clouds.5 mph73%30.29 "Hg7 mi
12:00 AM21 °FPassing clouds.6 mph73%30.29 "Hg7 mi
11:00 PM
Dec 28
20 °FPassing clouds.5 mph69%30.28 "Hg7 mi
10:00 PM19 °FPassing clouds.5 mph67%30.27 "Hg7 mi
9:00 PM18 °FPassing clouds.5 mph61%30.24 "Hg7 mi
8:00 PM19 °FPassing clouds.6 mph55%30.22 "Hg7 mi
7:00 PM19 °FPassing clouds.6 mph63%30.20 "Hg7 mi
6:00 PM20 °FPassing clouds.3 mph66%30.18 "Hg7 mi
5:00 PM22 °FPassing clouds.3 mph64%30.16 "Hg9 mi
4:00 PM22 °FPartly sunny.5 mph61%30.11 "Hg9 mi
3:00 PM23 °FOvercast.8 mph60%30.06 "Hg9 mi
2:00 PM24 °FOvercast.9 mph61%30.02 "Hg9 mi
1:00 PM25 °FPartly sunny.9 mph60%30.00 "Hg7 mi
12:00 PM24 °FLight snow. Overcast.10 mph68%30.00 "Hg6 mi
11:00 AM25 °FLight snow. Overcast.7 mph67%29.98 "Hg5 mi
10:00 AM25 °FLight snow. Overcast.9 mph72%29.96 "Hg3 mi
9:00 AM24 °FLight snow. Overcast.9 mph74%29.93 "Hg2 mi
8:00 AM24 °FLight snow. Overcast.9 mph80%29.90 "Hg2 mi
7:00 AM24 °FLight snow. Overcast.9 mph83%29.86 "Hg2 mi
6:00 AM24 °FLight snow. Overcast.9 mph83%29.83 "Hg3 mi
5:00 AM25 °FOvercast.10 mph78%29.80 "Hg3 mi
Weather by CustomWeather, © 2014

See weather overviewHow to use our weather pages